Starlink 37228

operational
NORAD ID: 68571 Int'l Des: 2026-070 Owner: SPXS Country: US Constellation: starlink
MEOELLIPTICALHEO_ELLIPTICALSEMI_SYNCMOLNIYA

关于 Starlink 37228

正在加载描述...

实时位置

正在加载3D地球...

即将过境

高度历史

Altitude vs Time

uPlot chart will show altitude changes over time

两行轨道根数

1 68571U 26071A 26093.32069436 -.00001265 00000-0 16587-2 0 9990
2 68571 62.7917 238.8364 7241466 284.9481 10.7459 1.98618778 13
Epoch: Apr 3, 2026 • Age: 23 hours

当前状态

高度 11783.6 km
速度 5.38 km/s
星下点 8.45°N, 122.53°E
发射日期 Apr 2, 2026
运行时间 1 days
类型 internet

技术详情

分类 Payload
质量 575.00 kg
干质量 530.00 kg
总质量 575.00 kg
长度 0.30 m
直径 4.10 m
跨度 29.00 m
形状 Box + pan
制造商 SPXS
平台类型 Starlink V2MO
阶段状态 In Orbit
所有者/国家 SPXS/US

大型星座

Loading constellations...